{"data":{"norad_id":55112,"epoch":"2026-05-25T05:17:47.915808Z","epoch_age_seconds":62821,"freshness":"FRESH","line1":"1 55112U 23001DH  26145.22069347  .00019968  00000+0  74072-3 0  9996","line2":"2 55112  97.5650 238.9739 0008053  84.6839 275.5318 15.27606269141026","mean_motion":15.27606269,"eccentricity":0.0008053,"inclination_deg":97.565,"raan_deg":238.9739,"arg_perigee_deg":84.6839,"mean_anomaly_deg":275.5318,"bstar":0.00074072,"rev_number":14102,"period_min":94.265127685202,"perigee_km":477.44518851054,"apogee_km":488.49568815071,"semimajor_km":6861.1074383306,"source":"CELESTRAK","updated_at":"2026-05-25T13:37:58.817125Z"}}